Location: Dampvalley
(47.9094°N, 6.1967°E)
Time: 19:28:50
(UTC+00:00)

CZ-2D R/B - Pass Details

Date: 05 March 2021
Orbit: 792 x 844 km, 98.7° (Epoch: 20 April)

Event Time Altitude Azimuth Distance (km) Brightness Sun altitude
Rises 02:47:40 0° 3° (N) 3,313 5.7 -33.2°
Reaches altitude 10° 02:50:31 10° 348° (NNW) 2,384 4.7 -32.8°
Enters shadow 02:51:12 13° 342° (NNW) 2,200 4.5 -32.7°
